AUR8LG EGJB-EGKK

Flight info

Callsign AUR8LG
Flight time N/A
Altitude 13000
Route ORIST L982 VASUX
Aircraft AT76/M-SDFGRY/LB1

Departure

Time 2026-04-20 17:11
Airport Guernsey Airport (EGJB)

Arrival

Time N/A
Airport London Gatwick Airport (EGKK)
Time Latitude Longitude Altitude Speed Heading
2026-04-20 16:54 49.43254 -2.59620 325 ft 0 kts 178°
2026-04-20 17:05 49.43273 -2.59621 325 ft 4 kts 178°
2026-04-20 17:05 49.43294 -2.59622 325 ft 4 kts 178°
2026-04-20 17:05 49.43321 -2.59624 326 ft 4 kts 178°
2026-04-20 17:06 49.43341 -2.59624 325 ft 4 kts 195°
2026-04-20 17:06 49.43359 -2.59604 325 ft 4 kts 250°
2026-04-20 17:06 49.43363 -2.59579 327 ft 1 kts 268°
2026-04-20 17:08 49.43362 -2.59638 323 ft 16 kts 269°
2026-04-20 17:08 49.43346 -2.59813 322 ft 17 kts 267°
2026-04-20 17:08 49.43340 -2.60032 308 ft 23 kts 267°
2026-04-20 17:09 49.43333 -2.60297 291 ft 26 kts 267°
2026-04-20 17:09 49.43327 -2.60557 290 ft 23 kts 269°
2026-04-20 17:09 49.43346 -2.60770 297 ft 18 kts 280°
2026-04-20 17:09 49.43366 -2.60964 306 ft 17 kts 272°
2026-04-20 17:10 49.43360 -2.61165 309 ft 19 kts 268°
2026-04-20 17:10 49.43390 -2.61307 311 ft 13 kts 311°
2026-04-20 17:10 49.43458 -2.61352 312 ft 8 kts 39°
2026-04-20 17:10 49.43465 -2.61310 312 ft 0 kts 87°
2026-04-20 17:11 49.43468 -2.61229 311 ft 33 kts 86°
2026-04-20 17:11 49.43490 -2.60529 304 ft 96 kts 86°
2026-04-20 17:11 49.43533 -2.59339 543 ft 117 kts 84°
2026-04-20 17:11 49.43617 -2.58073 1049 ft 120 kts 81°
2026-04-20 17:12 49.43703 -2.56729 1418 ft 136 kts 84°
2026-04-20 17:12 49.43743 -2.55125 1616 ft 159 kts 86°
2026-04-20 17:12 49.43752 -2.53436 2113 ft 161 kts 87°
2026-04-20 17:12 49.43757 -2.51724 2659 ft 159 kts 88°
2026-04-20 17:13 49.43785 -2.50033 3177 ft 157 kts 80°
2026-04-20 17:13 49.44413 -2.48721 3631 ft 162 kts 28°
2026-04-20 17:13 49.45517 -2.48211 4035 ft 167 kts 19°
2026-04-20 17:13 49.46644 -2.47794 4315 ft 170 kts 18°
2026-04-20 17:14 49.47801 -2.47386 4650 ft 171 kts 18°
2026-04-20 17:14 49.48973 -2.46973 4938 ft 175 kts 17°
2026-04-20 17:14 49.50162 -2.46565 5253 ft 176 kts 17°
2026-04-20 17:14 49.51355 -2.46135 5574 ft 176 kts 18°
2026-04-20 17:15 49.52551 -2.45685 5892 ft 177 kts 18°
2026-04-20 17:15 49.53768 -2.45222 6217 ft 178 kts 18°
2026-04-20 17:15 49.54958 -2.44771 6525 ft 179 kts 18°
2026-04-20 17:15 49.56169 -2.44311 6827 ft 180 kts 18°
2026-04-20 17:16 49.57403 -2.43842 7137 ft 181 kts 17°
2026-04-20 17:16 49.58631 -2.43398 7526 ft 182 kts 17°
2026-04-20 17:16 49.59868 -2.42944 7886 ft 184 kts 16°
2026-04-20 17:16 49.61112 -2.42432 8233 ft 186 kts 17°
2026-04-20 17:17 49.62360 -2.41877 8622 ft 187 kts 17°
2026-04-20 17:17 49.63613 -2.41307 9002 ft 189 kts 18°